Location: Haliburton Scout Reserve
(45.0900°N, 78.3200°W)
Time: 23:19:13
(UTC-05:00)

Explorer 7 - Visible Passes

Search period start: 29 January 2023 00:00
Search period end: 08 February 2023 00:00
Orbit: 480 x 660 km, 50.3° (Epoch: 29 January)

Date Brightness Start Highest point End Pass type
(mag) Time Alt. Az. Time Alt. Az. Time Alt. Az.
29 Jan 7.5 17:41:45 10° WNW 17:46:14 50° NNE 17:50:53 10° E visible
29 Jan 7.3 19:22:06 10° WNW 19:26:47 67° SSW 19:27:48 51° SSE visible
29 Jan 10.2 21:03:35 10° W 21:03:54 11° W 21:03:54 11° W visible
30 Jan 7.3 17:42:47 10° WNW 17:47:20 58° NNE 17:52:03 10° E visible
30 Jan 7.9 19:23:10 10° WNW 19:27:43 49° SW 19:29:21 34° SSE visible
31 Jan 7.2 17:43:48 10° WNW 17:48:24 70° NNE 17:53:10 10° ESE visible
31 Jan 8.5 19:24:19 10° WNW 19:28:36 35° SW 19:31:05 21° SSE visible
01 Feb 7.2 17:44:48 10° WNW 17:49:25 87° NNE 17:54:12 10° ESE visible
01 Feb 9.1 19:25:34 10° W 19:29:25 25° SW 19:33:03 11° S visible
02 Feb 7.4 17:45:47 10° WNW 17:50:22 73° SSW 17:55:08 10° SE visible
02 Feb 9.7 19:27:02 10° W 19:30:11 18° SW 19:33:22 10° S visible
03 Feb 8.0 17:46:48 10° WNW 17:51:17 53° SW 17:55:55 10° SE visible
03 Feb 10.1 19:29:09 10° WSW 19:30:54 12° SW 19:32:39 10° SSW visible
